#timestamp,LO_Frequency,Hit,StdDev 
1592146815.6,286046997.9,N
1592146835.4,286046996.7,N
1592146855.3,286046997.5,N
1592146875.1,286046995.4,Y
1592146895.8,286046998.5,P
1592146915.7,286046996.6,P
1592146935.5,286046996.6,P
1592146955.4,286046998.5,N
1592146975.2,286046996.9,Y
1592146995.0,286046998.7,P
1592146995.9,286046998.7,N
1592147015.8,286047000.4,N
1592147035.6,286047001.9,N
1592147055.5,286047002.5,N
1592147075.3,286046999.7,N
1592147095.1,286047002.8,N
1592147115.9,286047000.2,N
1592147135.7,286047002.8,N
1592147155.6,286047002.3,N
1592147175.4,286047002.2,N
1592147195.2,286047002.6,N
1592147215.1,286047002.1,N
1592147216.0,286047002.1,N
1592147235.8,286046999.8,N
1592147255.6,286047002.7,N
1592147275.5,286047002.0,N
1592147295.3,286047001.7,N
1592147315.2,286047001.8,N
1592147335.9,286047001.3,N
1592147355.7,286047001.8,N
1592147375.6,286047004.0,N
1592147395.4,286047001.9,N
1592147415.2,286047002.0,N
1592147435.1,286047002.1,N
1592147436.0,286047002.1,N
1592147455.8,286047004.2,N
1592147475.7,286047005.4,Y
1592147495.5,286047001.4,P
1592147515.3,286047001.7,P
1592147535.2,286047004.0,P
1592147555.0,286047001.7,N
1592147555.9,286047001.7,N
1592147575.8,286047004.1,Y
1592147595.6,286047000.2,P
1592147615.4,286047000.0,N
1592147635.3,286047002.8,P
1592147655.2,286047000.2,N
1592147675.0,286047001.9,N
1592147675.9,286047001.9,N
1592147695.8,286047002.2,N
1592147715.6,286047002.7,N
1592147735.5,286046999.7,N
1592147755.3,286046999.7,N
1592147775.1,286047000.2,N
1592147795.9,286047000.5,N
1592147815.7,286047000.9,N
1592147835.5,286047000.2,N
1592147855.4,286047000.6,N
1592147875.2,286047000.8,N
1592147895.1,286047000.2,N
1592147896.0,286047000.2,N
1592147915.8,286047000.2,N
1592147935.7,286046999.8,N
1592147955.5,286047000.3,N
1592147975.3,286047000.0,N
1592147995.2,286046999.1,N
1592148015.0,286046998.8,N
1592148015.9,286046998.8,N
1592148035.7,286047001.0,N
1592148055.6,286047000.6,N
1592148075.4,286047000.3,N
1592148095.3,286047000.1,N
1592148115.1,286047002.5,N
1592148135.8,286047004.4,Y
1592148155.7,286047001.7,P
1592148175.5,286047001.6,N
1592148195.4,286047002.0,P
1592148215.2,286047001.4,N
1592148235.0,286047003.8,Y
1592148236.0,286047003.8,P
1592148255.8,286047002.6,N
1592148275.6,286047002.4,N
1592148295.5,286046999.8,N
1592148315.3,286047000.2,N
1592148335.1,286047002.8,N
1592148355.9,286046999.8,N
1592148375.7,286047002.5,N
1592148395.6,286047002.1,N
1592148415.4,286047000.3,N
1592148435.2,286047000.3,N
1592148455.1,286046998.1,N
1592148456.0,286046998.1,N
1592148475.8,286046998.1,N
1592148495.7,286047001.2,N
1592148515.5,286046998.8,N
1592148535.3,286046998.7,N
1592148555.2,286046999.3,N
1592148575.0,286046999.6,N
1592148575.9,286046999.6,N
1592148595.7,286046998.3,N
1592148615.6,286047001.2,N
1592148635.4,286046999.1,N
1592148655.3,286046999.2,N
1592148675.1,286046995.0,Y
1592148695.8,286046996.5,P
1592148715.7,286046997.7,N
1592148735.5,286046997.6,N
1592148755.4,286046998.0,N
1592148775.2,286046994.9,Y
1592148795.0,286046999.5,P
1592148795.9,286046999.5,N
1592148815.8,286046999.3,N
1592148835.6,286046998.2,N
1592148855.5,286046997.1,Y
1592148875.3,286046999.3,P
1592148895.1,286046998.4,P
1592148915.9,286046998.5,P
1592148935.7,286046998.3,Y
1592148955.6,286047000.6,P
1592148975.4,286046998.5,N
1592148995.2,286047002.3,N
1592149015.1,286047000.9,N
1592149016.0,286047000.9,N
1592149035.8,286047000.2,N
1592149055.6,286047004.1,Y
1592149075.5,286047001.8,P
1592149095.3,286047001.9,N
1592149115.2,286047002.1,N
1592149135.9,286047001.5,N
1592149155.7,286047004.0,Y
1592149175.6,286047001.6,P
1592149195.4,286047002.6,P
1592149215.3,286046999.8,N
1592149235.1,286046999.7,N
1592149236.0,286046999.7,N
1592149255.8,286046999.8,N
1592149275.7,286046999.8,N
1592149295.5,286047002.6,N
1592149315.4,286047000.5,N
1592149335.2,286046999.8,N
1592149355.0,286047002.8,N
1592149355.9,286047002.8,N
1592149375.8,286047002.6,N
1592149395.6,286046999.9,N
1592149415.5,286046999.7,N
1592149435.3,286047000.5,N
1592149455.1,286047001.0,N
1592149475.9,286047002.5,N
1592149495.7,286047000.0,N
1592149515.5,286047000.3,N
1592149535.4,286047000.6,N
1592149555.2,286046999.7,N
1592149575.1,286046999.7,N
1592149576.0,286046999.7,N
1592149595.8,286047000.5,N
1592149615.6,286047000.9,N
1592149635.5,286047001.0,N
1592149655.3,286047001.0,N
1592149675.2,286047000.5,N
1592149695.9,286046998.2,N
1592149715.7,286046999.4,N
1592149735.6,286046998.3,N
1592149755.4,286047000.3,N
1592149775.2,286047000.1,N
1592149795.1,286046999.8,N
1592149796.0,286046999.8,N
1592149815.8,286046999.7,N
1592149835.7,286047000.0,N
1592149855.5,286047000.3,N
1592149875.3,286047001.6,N
1592149895.2,286047004.3,Y
1592149915.0,286047010.3,P
1592149915.9,286047010.3,N
1592149935.8,286047011.9,N
1592149955.6,286047010.6,N
1592149975.4,286047008.2,N
1592149995.3,286047006.7,N
1592150015.1,286047005.1,N
1592150035.8,286047005.2,N
1592150055.7,286047004.7,N
1592150075.5,286047003.1,N
1592150095.4,286047005.4,N
1592150115.2,286047005.5,N
1592150135.0,286047005.4,N
1592150135.9,286047005.4,N
1592150155.8,286047002.9,N
1592150175.6,286047003.4,N
1592150195.5,286047006.0,N
1592150215.3,286047004.1,N
1592150235.1,286047001.3,N
1592150255.9,286047001.8,N
1592150275.7,286047004.3,N
1592150295.5,286047001.5,N
1592150315.4,286047001.4,N
1592150335.2,286047001.8,N
1592150355.1,286047000.8,N
1592150356.0,286047000.8,N
1592150375.8,286046999.8,N
1592150395.6,286047002.5,N
